Retour au catalogue

STARLINK-36359

ActifCommunicationsSSO
NORAD 67979·PAYLOAD·🇺🇸 United States

Lancé Feb 25, 2026 depuis Vandenberg Space Force Base

Loading…

Prochains Passages (prochaines 24 heures)

TLE

FraisSource: CelesTrak SupGP

Époque: Sep 15, 2026, 03:25 UTC

1 67979C 26038U   26258.14284722 -.00058399  00000+0 -18132-2 0  2580
2 67979  97.2845 266.5887 0001603  90.7729 292.9097 15.33463231    11

Suivez STARLINK-36359 en temps réel avec AllMySat

Download on the App Store